When you browse on this site, cookies collect data to enhance your experience and personalize the content and advertising you see.
Visit our Privacy Policy to learn more. By continuing to use the site, you agree to this use of cookies and data.
  • In Lithuania
  • List of Countries
  • For 7 days
  • Water Temperature
  • Weather Map
  • Weather Widgets
  • user-avatar
    Login

    Hourly Weather Vilnius

    Today, 19 September, Thursday

    Time Temperature Precipitation Wind Pressure Humidity
    00:00 +7°C° 0.1 mm 3 mps 745 mmHg 96%
    01:00 +7°C° 0.1 mm 3 mps 746 mmHg 96%
    02:00 +7°C° 0.1 mm 3 mps 746 mmHg 97%
    03:00 +7°C° 0.1 mm 3 mps 747 mmHg 96%
    04:00 +7°C° 0.1 mm 3 mps 747 mmHg 96%
    05:00 +7°C° 0.1 mm 3 mps 747 mmHg 95%
    06:00 +7°C° 0 mm 3 mps 748 mmHg 94%
    07:00 +7°C° 0 mm 3 mps 748 mmHg 93%
    08:00 +7°C° 0 mm 3 mps 748 mmHg 91%
    09:00 +8°C° 0 mm 3 mps 749 mmHg 83%
    10:00 +10°C° 0 mm 3 mps 749 mmHg 76%
    11:00 +11°C° 0 mm 3 mps 749 mmHg 68%
    12:00 +12°C° 0.1 mm 3 mps 749 mmHg 65%
    13:00 +12°C° 0.1 mm 3 mps 749 mmHg 63%
    14:00 +13°C° 0.1 mm 4 mps 749 mmHg 60%
    15:00 +12°C° 0.3 mm 4 mps 749 mmHg 65%
    16:00 +12°C° 0.3 mm 3 mps 749 mmHg 71%
    17:00 +11°C° 0.3 mm 3 mps 749 mmHg 76%
    18:00 +10°C° 0.2 mm 3 mps 749 mmHg 80%
    19:00 +9°C° 0.2 mm 3 mps 749 mmHg 84%
    20:00 +8°C° 0.2 mm 3 mps 749 mmHg 88%
    21:00 +8°C° 0 mm 3 mps 750 mmHg 90%
    22:00 +7°C° 0 mm 3 mps 750 mmHg 92%
    23:00 +7°C° 0 mm 3 mps 750 mmHg 94%

    Tomorrow, 20 September, Friday

    Time Temperature Precipitation Wind Pressure Humidity
    00:00 +5°C° 0 mm 3 mps 750 mmHg 94%
    01:00 +5°C° 0 mm 4 mps 751 mmHg 94%
    02:00 +5°C° 0 mm 4 mps 751 mmHg 94%
    03:00 +4°C° 0 mm 4 mps 751 mmHg 94%
    04:00 +4°C° 0 mm 4 mps 751 mmHg 94%
    05:00 +3°C° 0 mm 4 mps 751 mmHg 94%
    06:00 +4°C° 0 mm 4 mps 751 mmHg 92%
    07:00 +4°C° 0 mm 4 mps 752 mmHg 90%
    08:00 +4°C° 0 mm 4 mps 752 mmHg 88%
    09:00 +6°C° 0 mm 4 mps 752 mmHg 80%
    10:00 +7°C° 0 mm 5 mps 753 mmHg 72%
    11:00 +8°C° 0 mm 5 mps 753 mmHg 65%
    12:00 +9°C° 0.1 mm 5 mps 753 mmHg 62%
    13:00 +9°C° 0.1 mm 5 mps 753 mmHg 60%
    14:00 +11°C° 0.1 mm 4 mps 753 mmHg 57%
    15:00 +10°C° 0.1 mm 4 mps 753 mmHg 60%
    16:00 +10°C° 0.1 mm 3 mps 753 mmHg 63%
    17:00 +10°C° 0.1 mm 2 mps 753 mmHg 65%
    18:00 +8°C° 0 mm 2 mps 753 mmHg 70%
    19:00 +7°C° 0 mm 2 mps 753 mmHg 75%
    20:00 +6°C° 0 mm 1 mps 753 mmHg 80%
    21:00 +5°C° 0 mm 2 mps 753 mmHg 81%
    22:00 +5°C° 0 mm 2 mps 753 mmHg 81%
    23:00 +5°C° 0 mm 2 mps 753 mmHg 82%

    Day after tomorrow, 21 September, Saturday

    Time Temperature Precipitation Wind Pressure Humidity
    00:00 +6°C° 0 mm 2 mps 752 mmHg 81%
    01:00 +6°C° 0 mm 2 mps 752 mmHg 81%
    02:00 +7°C° 0 mm 3 mps 752 mmHg 80%
    03:00 +7°C° 0.7 mm 3 mps 751 mmHg 84%
    04:00 +6°C° 0.7 mm 4 mps 750 mmHg 88%
    05:00 +6°C° 0.7 mm 4 mps 750 mmHg 93%
    06:00 +7°C° 0.6 mm 4 mps 750 mmHg 94%
    07:00 +8°C° 0.6 mm 4 mps 749 mmHg 96%
    08:00 +10°C° 0.6 mm 4 mps 749 mmHg 98%
    09:00 +10°C° 0.2 mm 5 mps 749 mmHg 96%
    10:00 +12°C° 0.2 mm 5 mps 749 mmHg 94%
    11:00 +13°C° 0.2 mm 5 mps 749 mmHg 93%
    12:00 +13°C° 0.1 mm 5 mps 749 mmHg 91%
    13:00 +13°C° 0.1 mm 5 mps 749 mmHg 90%
    14:00 +13°C° 0.1 mm 5 mps 749 mmHg 88%
    15:00 +14°C° 0.1 mm 5 mps 749 mmHg 88%
    16:00 +14°C° 0.1 mm 5 mps 749 mmHg 87%
    17:00 +14°C° 0.1 mm 4 mps 749 mmHg 86%
    18:00 +13°C° 0 mm 5 mps 749 mmHg 89%
    19:00 +12°C° 0 mm 5 mps 749 mmHg 91%
    20:00 +10°C° 0 mm 5 mps 749 mmHg 94%
    21:00 +10°C° 0 mm 5 mps 749 mmHg 94%
    22:00 +10°C° 0 mm 5 mps 749 mmHg 95%
    23:00 +9°C° 0 mm 5 mps 749 mmHg 95%

    22 September, Sunday

    Time Temperature Precipitation Wind Pressure Humidity
    00:00 +10°C° 0 mm 5 mps 749 mmHg 94%
    01:00 +10°C° 0 mm 5 mps 749 mmHg 93%
    02:00 +10°C° 0 mm 5 mps 748 mmHg 92%
    03:00 +10°C° 0 mm 5 mps 749 mmHg 92%
    04:00 +10°C° 0 mm 5 mps 749 mmHg 92%
    05:00 +10°C° 0 mm 5 mps 749 mmHg 92%
    06:00 +10°C° 0 mm 5 mps 749 mmHg 90%
    07:00 +10°C° 0 mm 5 mps 750 mmHg 88%
    08:00 +10°C° 0 mm 5 mps 750 mmHg 86%
    09:00 +11°C° 0 mm 4 mps 751 mmHg 74%
    10:00 +11°C° 0 mm 4 mps 751 mmHg 62%
    11:00 +11°C° 0 mm 3 mps 752 mmHg 50%
    12:00 +12°C° 0 mm 3 mps 752 mmHg 47%
    13:00 +13°C° 0 mm 2 mps 752 mmHg 43%
    14:00 +14°C° 0 mm 2 mps 752 mmHg 40%
    15:00 +13°C° 0 mm 2 mps 752 mmHg 44%
    16:00 +13°C° 0 mm 2 mps 752 mmHg 48%
    17:00 +12°C° 0 mm 1 mps 752 mmHg 53%
    18:00 +11°C° 0 mm 1 mps 752 mmHg 57%
    19:00 +9°C° 0 mm 1 mps 752 mmHg 61%
    20:00 +7°C° 0 mm 1 mps 752 mmHg 66%
    21:00 +7°C° 0 mm 1 mps 752 mmHg 67%
    22:00 +6°C° 0 mm 2 mps 752 mmHg 69%
    23:00 +5°C° 0 mm 2 mps 752 mmHg 71%

    23 September, Monday

    Time Temperature Precipitation Wind Pressure Humidity
    00:00 +5°C° 0 mm 2 mps 752 mmHg 71%
    01:00 +5°C° 0 mm 2 mps 752 mmHg 71%
    02:00 +4°C° 0 mm 3 mps 752 mmHg 72%
    03:00 +4°C° 0 mm 3 mps 751 mmHg 73%
    04:00 +4°C° 0 mm 3 mps 751 mmHg 73%
    05:00 +4°C° 0 mm 3 mps 750 mmHg 74%
    06:00 +5°C° 0 mm 4 mps 750 mmHg 73%
    07:00 +5°C° 0 mm 4 mps 749 mmHg 71%
    08:00 +6°C° 0 mm 4 mps 749 mmHg 70%
    09:00 +8°C° 0 mm 4 mps 748 mmHg 69%
    10:00 +10°C° 0 mm 4 mps 748 mmHg 69%
    11:00 +12°C° 0 mm 4 mps 747 mmHg 68%
    12:00 +13°C° 0 mm 4 mps 747 mmHg 68%
    13:00 +15°C° 0 mm 4 mps 746 mmHg 67%
    14:00 +17°C° 0 mm 4 mps 745 mmHg 66%
    15:00 +16°C° 0 mm 3 mps 744 mmHg 70%
    16:00 +16°C° 0 mm 3 mps 744 mmHg 73%
    17:00 +16°C° 0 mm 2 mps 743 mmHg 77%
    18:00 +15°C° 0 mm 2 mps 743 mmHg 82%
    19:00 +13°C° 0 mm 2 mps 743 mmHg 87%
    20:00 +12°C° 0 mm 2 mps 742 mmHg 92%
    21:00 +12°C° 0 mm 1 mps 742 mmHg 92%
    22:00 +11°C° 0 mm 1 mps 742 mmHg 93%
    23:00 +11°C° 0 mm 1 mps 741 mmHg 93%

    24 September, Tuesday

    Time Temperature Precipitation Wind Pressure Humidity
    00:00 +10°C° 0 mm 1 mps 741 mmHg 93%
    01:00 +10°C° 0 mm 1 mps 741 mmHg 93%
    02:00 +10°C° 0 mm 1 mps 741 mmHg 93%
    03:00 +10°C° 0 mm 1 mps 741 mmHg 93%
    04:00 +9°C° 0 mm 1 mps 741 mmHg 94%
    05:00 +9°C° 0 mm 1 mps 741 mmHg 94%
    06:00 +10°C° 0 mm 1 mps 741 mmHg 93%
    07:00 +10°C° 0 mm 1 mps 741 mmHg 91%
    08:00 +10°C° 0 mm 0 mps 741 mmHg 90%
    09:00 +13°C° 0 mm 1 mps 741 mmHg 84%
    10:00 +14°C° 0 mm 1 mps 741 mmHg 77%
    11:00 +16°C° 0 mm 1 mps 741 mmHg 71%
    12:00 +18°C° 0 mm 1 mps 741 mmHg 69%
    13:00 +17°C° 0 mm 2 mps 741 mmHg 68%
    14:00 +17°C° 0 mm 2 mps 741 mmHg 66%
    15:00 +17°C° 0.2 mm 2 mps 741 mmHg 70%
    16:00 +16°C° 0.2 mm 2 mps 741 mmHg 75%
    17:00 +16°C° 0.2 mm 2 mps 741 mmHg 79%
    18:00 +14°C° 0.2 mm 2 mps 742 mmHg 84%
    19:00 +13°C° 0.2 mm 2 mps 742 mmHg 88%
    20:00 +12°C° 0.2 mm 2 mps 742 mmHg 92%
    21:00 +12°C° 0 mm 2 mps 743 mmHg 92%
    22:00 +10°C° 0 mm 2 mps 743 mmHg 92%
    23:00 +10°C° 0 mm 3 mps 744 mmHg 91%
    Show more